パンスターズ彗星

C/2019 K6 ( PanSTARRS )

English version
Home page
Updated on June 13, 2020

---------------------------------------------------------------------

・ プロフィール

発見日 2019年5月31日
発見光度 21.1等
発見者 Pan-STARRS2 1.8-m Ritchey-Chretien reflector at Haleakala

・ 写真集

・ 軌道要素

Epoch 2020 May 31.0 TT = JDT 2459000.5                                          
T 2020 May 20.17656 TT                                  Rudenko                 
q   3.9286308            (2000.0)            P               Q                  
z  +0.0006627      Peri.  187.61622     -0.78645939     -0.35804591             
 +/-0.0000012      Node    42.94004     -0.52056136     +0.82278740             
e   0.9973964      Incl.  132.37329     -0.33241165     -0.44138874             
From 305 observations 2019 May 7-2020 May 19, mean residual 0".5.               

・ 光度変化

        m1 = 8.0 + 5 logΔ + 12.5 log r

---------------------------------------------------------------------

軌道要素はM.P.E.C. 2020-K171に掲載されたものです。
光度グラフはComet for Windowsで作成したものです。

---------------------------------------------------------------------

Copyright(C) Seiichi Yoshida (comet@aerith.net). All rights reserved.